Radiation Dose at Monitoring Post of Fukushima Daini Nuclear Power Station
Date,Time,MP-1(microSv/h),MP-2(microSv/h),MP-3(microSv/h),MP-4(microSv/h),MP-5(microSv/h),MP-6(microSv/h),MP-7(microSv/h),Wind Direction,Wind Velocity(m/s),Rain
2023/07/24,00:00,0.146,0.134,0.214,0.203,0.211,0.118,0.075,south,5.7,No
2023/07/24,00:10,0.145,0.136,0.213,0.205,0.209,0.117,0.075,south,4.8,No
2023/07/24,00:20,0.147,0.135,0.212,0.202,0.210,0.117,0.076,south,4.9,No
2023/07/24,00:30,0.147,0.135,0.214,0.203,0.212,0.117,0.075,south,5.4,No
2023/07/24,00:40,0.145,0.135,0.212,0.204,0.210,0.116,0.075,south,5.1,No
2023/07/24,00:50,0.148,0.136,0.213,0.204,0.211,0.116,0.075,south,5.3,No
2023/07/24,01:00,0.147,0.135,0.214,0.204,0.212,0.117,0.075,south,5.0,No
2023/07/24,01:10,0.146,0.136,0.212,0.205,0.210,0.117,0.074,south,4.4,No
2023/07/24,01:20,0.148,0.134,0.213,0.203,0.210,0.116,0.075,south,4.1,No
2023/07/24,01:30,0.148,0.135,0.213,0.204,0.210,0.117,0.074,south,3.9,No
2023/07/24,01:40,0.146,0.136,0.211,0.205,0.211,0.117,0.075,south,3.4,No
2023/07/24,01:50,0.148,0.135,0.213,0.202,0.208,0.117,0.075,south,3.4,No
2023/07/24,02:00,0.148,0.137,0.213,0.205,0.212,0.118,0.075,south,2.6,No
2023/07/24,02:10,0.146,0.135,0.213,0.204,0.210,0.117,0.075,south,2.7,No
2023/07/24,02:20,0.148,0.135,0.215,0.203,0.210,0.117,0.075,south,2.4,No
2023/07/24,02:30,0.147,0.136,0.211,0.205,0.212,0.118,0.076,south-southwest,2.5,No
2023/07/24,02:40,-,-,-,-,-,-,-,-,-,-
2023/07/24,02:50,0.149,0.136,0.212,0.203,0.210,0.117,0.075,south,2.1,No
2023/07/24,03:00,0.148,0.136,0.213,0.205,0.213,0.118,0.076,south-southwest,3.1,No
2023/07/24,03:10,0.148,0.135,0.214,0.204,0.209,0.118,0.075,south-southwest,2.8,No
2023/07/24,03:20,0.149,0.137,0.213,0.206,0.212,0.117,0.075,south-southwest,2.7,No
2023/07/24,03:30,0.147,0.135,0.213,0.206,0.212,0.118,0.075,south-southwest,2.0,No
2023/07/24,03:40,0.148,0.137,0.214,0.203,0.210,0.117,0.076,south-southwest,2.2,No
2023/07/24,03:50,0.148,0.136,0.214,0.205,0.212,0.117,0.076,south-southwest,1.6,No
2023/07/24,04:00,0.148,0.137,0.214,0.204,0.211,0.120,0.075,south-southwest,1.0,No
2023/07/24,04:10,0.150,0.137,0.214,0.204,0.211,0.117,0.077,southwest,1.3,No
2023/07/24,04:20,0.148,0.136,0.216,0.206,0.213,0.118,0.076,west,1.2,No
2023/07/24,04:30,0.148,0.137,0.213,0.202,0.210,0.118,0.076,west-northwest,0.8,No
2023/07/24,04:40,0.150,0.136,0.215,0.206,0.212,0.119,0.076,northwest,0.7,No
2023/07/24,04:50,0.147,0.137,0.215,0.204,0.212,0.118,0.076,northwest,1.3,No
2023/07/24,05:00,0.151,0.137,0.215,0.206,0.211,0.119,0.077,northwest,1.5,Yes
2023/07/24,05:10,0.150,0.137,0.215,0.207,0.214,0.118,0.077,north-northwest,1.1,No
2023/07/24,05:20,0.148,0.138,0.213,0.205,0.211,0.119,0.076,northwest,1.2,No
2023/07/24,05:30,0.150,0.137,0.215,0.207,0.210,0.118,0.076,west-northwest,0.8,No
2023/07/24,05:40,0.148,0.137,0.214,0.203,0.214,0.118,0.076,northeast,0.7,No
2023/07/24,05:50,0.148,0.137,0.214,0.205,0.212,0.118,0.076,northeast,0.9,No
2023/07/24,06:00,0.149,0.135,0.215,0.206,0.210,0.118,0.076,-,CALM,No
2023/07/24,06:10,0.149,0.136,0.213,0.204,0.213,0.118,0.076,-,CALM,No
2023/07/24,06:20,0.148,0.138,0.214,0.205,0.213,0.118,0.076,-,CALM,No
2023/07/24,06:30,0.149,0.137,0.213,0.205,0.212,0.118,0.077,north-northeast,0.9,No
2023/07/24,06:40,0.148,0.136,0.214,0.204,0.209,0.119,0.076,north-northwest,1.2,No
2023/07/24,06:50,0.148,0.136,0.215,0.205,0.211,0.118,0.076,north-northeast,1.7,No
2023/07/24,07:00,0.147,0.137,0.213,0.206,0.213,0.118,0.076,north,1.4,No
2023/07/24,07:10,0.149,0.137,0.212,0.205,0.211,0.118,0.076,north,1.2,No
2023/07/24,07:20,0.149,0.136,0.212,0.203,0.210,0.118,0.076,north,0.8,No
2023/07/24,07:30,0.147,0.136,0.215,0.202,0.209,0.118,0.077,north,0.6,No
2023/07/24,07:40,0.148,0.135,0.215,0.202,0.212,0.119,0.076,-,CALM,No
2023/07/24,07:50,0.148,0.135,0.214,0.203,0.211,0.118,0.076,-,CALM,No
2023/07/24,08:00,0.147,0.135,0.213,0.203,0.210,0.118,0.077,-,CALM,No
2023/07/24,08:10,0.148,0.136,0.214,0.203,0.210,0.118,0.076,north-northeast,1.4,No
2023/07/24,08:20,0.148,0.136,0.213,0.203,0.210,0.117,0.077,-,CALM,No
2023/07/24,08:30,0.147,0.136,0.214,0.204,0.210,0.118,0.077,-,CALM,No
2023/07/24,08:40,0.148,0.135,0.214,0.203,0.210,0.118,0.076,east-northeast,0.7,No
2023/07/24,08:50,0.147,0.137,0.214,0.206,0.211,0.118,0.076,southeast,0.8,No
2023/07/24,09:00,0.149,0.138,0.213,0.205,0.211,0.119,0.077,south-southeast,2.2,No
2023/07/24,09:10,0.148,0.138,0.213,0.206,0.210,0.119,0.076,south,3.7,No
2023/07/24,09:20,0.148,0.136,0.212,0.205,0.211,0.118,0.076,southeast,3.0,No
2023/07/24,09:30,0.149,0.137,0.214,0.205,0.211,0.118,0.076,southeast,3.6,No
2023/07/24,09:40,0.148,0.136,0.214,0.204,0.210,0.118,0.075,south,4.0,No
2023/07/24,09:50,0.148,0.136,0.214,0.204,0.211,0.118,0.075,south-southeast,4.0,No
2023/07/24,10:00,0.147,0.137,0.213,0.204,0.209,0.117,0.076,south-southeast,4.8,No
2023/07/24,10:10,0.146,0.136,0.214,0.204,0.210,0.117,0.075,south-southeast,4.9,No
2023/07/24,10:20,0.147,0.136,0.214,0.204,0.212,0.118,0.075,south-southeast,6.0,No
2023/07/24,10:30,0.147,0.135,0.214,0.203,0.211,0.117,0.075,south-southeast,6.4,No
2023/07/24,10:40,0.148,0.135,0.214,0.204,0.210,0.118,0.075,south-southeast,5.6,No
2023/07/24,10:50,0.148,0.136,0.214,0.205,0.211,0.117,0.075,south-southeast,6.0,No
2023/07/24,11:00,0.147,0.136,0.213,0.204,0.209,0.118,0.075,south-southeast,5.2,No
2023/07/24,11:10,0.146,0.136,0.213,0.205,0.210,0.117,0.075,south,6.1,No
2023/07/24,11:20,0.147,0.136,0.214,0.205,0.210,0.117,0.076,south,5.9,No
2023/07/24,11:30,0.148,0.136,0.213,0.204,0.211,0.116,0.074,south-southeast,6.1,No
2023/07/24,11:40,0.148,0.136,0.214,0.203,0.211,0.117,0.075,south-southeast,6.6,No
2023/07/24,11:50,0.148,0.136,0.214,0.204,0.211,0.117,0.075,south,6.7,No
2023/07/24,12:00,0.148,0.135,0.213,0.204,0.210,0.117,0.075,south-southeast,7.9,No
2023/07/24,12:10,0.148,0.136,0.213,0.205,0.210,0.117,0.075,south-southeast,8.5,No
2023/07/24,12:20,0.148,0.135,0.214,0.204,0.210,0.117,0.076,south-southeast,7.6,No
2023/07/24,12:30,0.147,0.136,0.213,0.204,0.210,0.117,0.075,south-southeast,7.4,No
2023/07/24,12:40,0.147,0.135,0.214,0.205,0.209,0.116,0.075,south-southeast,7.2,No
2023/07/24,12:50,0.146,0.136,0.213,0.204,0.210,0.117,0.075,south-southeast,7.2,No
2023/07/24,13:00,0.147,0.135,0.213,0.204,0.210,0.117,0.075,south-southeast,7.9,No
2023/07/24,13:10,0.147,0.136,0.214,0.204,0.211,0.117,0.075,south-southeast,8.3,No
2023/07/24,13:20,0.147,0.136,0.214,0.205,0.211,0.117,0.076,south-southeast,7.8,No
2023/07/24,13:30,0.147,0.136,0.213,0.204,0.211,0.118,0.075,south-southeast,8.2,No
2023/07/24,13:40,0.147,0.135,0.213,0.204,0.210,0.117,0.075,south-southeast,8.2,No
2023/07/24,13:50,0.147,0.135,0.213,0.205,0.210,0.117,0.075,south-southeast,7.8,No
2023/07/24,14:00,0.148,0.135,0.212,0.204,0.210,0.116,0.075,south-southeast,7.2,No
2023/07/24,14:10,0.148,0.135,0.214,0.204,0.211,0.117,0.074,south-southeast,6.5,No
2023/07/24,14:20,0.149,0.136,0.214,0.204,0.210,0.116,0.075,south-southeast,5.9,No
2023/07/24,14:30,0.148,0.135,0.213,0.206,0.210,0.117,0.075,south-southeast,6.0,No
2023/07/24,14:40,0.148,0.136,0.213,0.204,0.210,0.117,0.075,south,7.4,No
2023/07/24,14:50,0.146,0.135,0.215,0.204,0.209,0.117,0.075,south,6.7,No
2023/07/24,15:00,0.148,0.135,0.213,0.204,0.211,0.117,0.075,south,8.3,No
2023/07/24,15:10,0.148,0.135,0.213,0.204,0.210,0.117,0.076,south,7.3,No
2023/07/24,15:20,0.147,0.136,0.213,0.203,0.209,0.118,0.075,south-southeast,6.6,No
2023/07/24,15:30,0.148,0.136,0.214,0.204,0.211,0.117,0.075,south,8.2,No
2023/07/24,15:40,0.147,0.136,0.214,0.204,0.212,0.116,0.074,south-southeast,8.3,No
2023/07/24,15:50,0.148,0.134,0.213,0.204,0.208,0.117,0.075,south-southeast,7.4,No
2023/07/24,16:00,0.147,0.136,0.214,0.203,0.209,0.117,0.075,south,7.6,No
2023/07/24,16:10,0.147,0.135,0.212,0.203,0.211,0.117,0.074,south-southeast,6.9,No
2023/07/24,16:20,0.148,0.135,0.213,0.203,0.210,0.117,0.076,south-southeast,6.7,No
2023/07/24,16:30,0.147,0.135,0.212,0.203,0.210,0.117,0.075,south,6.9,No
2023/07/24,16:40,0.148,0.135,0.212,0.206,0.210,0.117,0.075,south-southeast,7.1,No
2023/07/24,16:50,0.147,0.135,0.212,0.207,0.210,0.117,0.075,south-southeast,7.7,No
2023/07/24,17:00,0.147,0.135,0.215,0.206,0.210,0.118,0.075,south-southeast,8.1,No
2023/07/24,17:10,0.148,0.137,0.216,0.205,0.210,0.117,0.076,south-southeast,8.4,No
2023/07/24,17:20,0.147,0.137,0.215,0.204,0.210,0.117,0.076,south,8.3,No
2023/07/24,17:30,0.147,0.136,0.214,0.205,0.211,0.118,0.075,south-southeast,6.5,No
2023/07/24,17:40,0.147,0.136,0.213,0.206,0.210,0.117,0.075,south-southeast,7.3,No
2023/07/24,17:50,0.148,0.135,0.212,0.206,0.209,0.117,0.075,south,7.6,No
2023/07/24,18:00,0.149,0.135,0.215,0.204,0.209,0.117,0.076,south-southeast,7.0,No
2023/07/24,18:10,0.148,0.137,0.216,0.204,0.209,0.118,0.076,south,7.3,No
2023/07/24,18:20,0.146,0.136,0.215,0.204,0.211,0.118,0.075,south,7.0,No
2023/07/24,18:30,0.147,0.135,0.213,0.207,0.213,0.118,0.076,south,7.4,No
2023/07/24,18:40,0.148,0.135,0.214,0.205,0.212,0.118,0.076,south,6.8,No
2023/07/24,18:50,0.150,0.135,0.217,0.204,0.210,0.117,0.075,south,7.0,No
2023/07/24,19:00,0.148,0.136,0.215,0.204,0.209,0.119,0.075,south,6.5,No
2023/07/24,19:10,0.146,0.136,0.213,0.207,0.213,0.117,0.075,south,7.0,No
2023/07/24,19:20,0.146,0.134,0.214,0.207,0.212,0.117,0.075,south,7.0,No
2023/07/24,19:30,0.148,0.136,0.215,0.205,0.211,0.117,0.076,south,6.5,No
2023/07/24,19:40,0.149,0.137,0.215,0.203,0.209,0.118,0.076,south,6.2,No
2023/07/24,19:50,0.148,0.135,0.214,0.204,0.212,0.118,0.074,south,5.5,No
2023/07/24,20:00,0.147,0.135,0.213,0.208,0.212,0.117,0.075,south,4.4,No
2023/07/24,20:10,0.148,0.137,0.217,0.206,0.211,0.117,0.076,south,5.1,No
2023/07/24,20:20,0.148,0.136,0.216,0.204,0.209,0.118,0.076,south,5.1,No
2023/07/24,20:30,0.148,0.137,0.213,0.204,0.210,0.118,0.076,south,5.1,No
2023/07/24,20:40,0.147,0.136,0.215,0.207,0.213,0.118,0.075,south,5.2,No
2023/07/24,20:50,0.148,0.137,0.216,0.207,0.211,0.117,0.075,south,5.2,No
2023/07/24,21:00,0.149,0.136,0.214,0.206,0.210,0.118,0.076,south,4.8,No
2023/07/24,21:10,0.148,0.136,0.214,0.205,0.211,0.119,0.076,south,5.2,No
2023/07/24,21:20,0.147,0.137,0.217,0.208,0.214,0.118,0.076,south,4.9,No
2023/07/24,21:30,0.150,0.137,0.216,0.207,0.213,0.117,0.076,south,4.5,No
2023/07/24,21:40,0.148,0.135,0.215,0.204,0.210,0.118,0.076,south-southwest,3.1,No
2023/07/24,21:50,0.147,0.138,0.215,0.206,0.212,0.119,0.076,south,3.4,No
2023/07/24,22:00,0.147,0.137,0.217,0.208,0.213,0.117,0.076,south,4.3,No
2023/07/24,22:10,0.149,0.136,0.214,0.206,0.211,0.117,0.077,south-southwest,4.1,No
2023/07/24,22:20,0.149,0.136,0.214,0.205,0.211,0.118,0.076,south,3.8,No
2023/07/24,22:30,0.146,0.138,0.215,0.208,0.213,0.119,0.075,south-southwest,3.5,No
2023/07/24,22:40,0.148,0.136,0.216,0.206,0.212,0.118,0.076,south-southwest,3.4,No
2023/07/24,22:50,0.149,0.136,0.214,0.205,0.210,0.119,0.077,southwest,4.0,No
2023/07/24,23:00,0.149,0.138,0.217,0.206,0.211,0.119,0.076,south-southwest,3.1,No
2023/07/24,23:10,0.148,0.136,0.216,0.208,0.214,0.118,0.076,south-southwest,2.9,No
2023/07/24,23:20,0.150,0.137,0.214,0.206,0.211,0.118,0.076,southwest,2.6,No
2023/07/24,23:30,0.149,0.137,0.216,0.206,0.210,0.119,0.076,south-southwest,2.3,No
2023/07/24,23:40,0.149,0.137,0.215,0.208,0.213,0.119,0.076,south-southwest,2.4,No
2023/07/24,23:50,0.150,0.137,0.215,0.206,0.214,0.118,0.076,south-southwest,2.2,No
